[[{"header":{"parameterUnit":"m.s-1","parameterCategory":1,"la1":30.2991,"la2":30.254,"lo1":-89.0895,"lo2":-89.0444,"dy":0.0017,"dx":0.0017,"nx":28,"ny":28,"refTime":"2023-09-30T09:00:00:Z","depth":0,"parameterNumber":2,"parameterNumberName":"U-component_of_WINDS"},"data":[0,0,0,0,0,0,0,0,0,0,0,0,0,0,0,0,0,0,0,0,0,0,0,0,0,0,0,0,0,0,0,0,0,0,0,0,0,0,0,0,0,0,0,0,0,0,0,0,0,0,0,0,0,0,0,0,0,0,-2.3865,-2.3865,0,-2.3787,-2.3786,-2.3785,-2.3581,-2.3577,-2.3573,-2.3569,-2.3494,-2.3496,-2.3498,0,0,0,0,0,0,0,0,0,0,0,0,0,-2.3846,-2.3848,-2.3866,-2.3865,-2.3864,-2.3787,-2.3786,-2.3785,-2.3582,-2.3577,-2.3572,-2.3567,-2.3494,-2.3496,-2.3499,0,0,0,0,0,0,0,0,0,0,0,0,0,-2.382,-2.3848,-2.3866,-2.3753,-2.3742,-2.3787,-2.3786,-2.3784,-2.3583,-2.3577,-2.357,-2.3564,-2.3493,-2.3496,-2.3499,-2.3648,0,0,-2.3508,-2.351,0,0,0,0,0,0,0,0,-2.3822,-2.3821,-2.3771,-2.3761,-2.3749,-2.3687,-2.3751,-2.3739,-2.3585,-2.3644,-2.3569,-2.3561,-2.3564,-2.3561,-2.3561,-2.3645,-2.3642,-2.3509,-2.3511,-2.3512,-2.3513,0,0,0,0,0,0,0,-2.3824,-2.3823,-2.3834,-2.377,-2.3757,-2.3708,-2.3697,-2.3748,-2.3642,-2.3638,-2.3623,-2.3616,-2.3557,-2.3558,-2.3557,-2.3641,-2.3509,-2.3511,-2.3513,-2.3514,-2.3844,-2.385,0,0,0,0,0,0,-2.3841,-2.3826,-2.3837,-2.3832,-2.377,-2.3714,-2.3702,-2.3714,-2.3641,-2.3623,-2.3622,-2.3607,-2.3556,-2.3554,-2.3554,-2.3725,-2.3512,-2.3515,-2.3517,-2.3837,-2.3845,-2.3853,0,0,0,0,0,0,-2.3842,-2.3844,-2.384,-2.3825,-2.3821,-2.3721,-2.3736,-2.3716,-2.3716,-2.3628,-2.3609,-2.3643,-2.3551,-2.355,-2.3626,-2.3719,-2.3516,-2.3519,-2.3829,-2.3839,-2.3849,-2.4068,0,0,0,0,0,0,-2.3842,-2.3845,-2.39,-2.3828,-2.3822,-2.3913,-2.3742,-2.3719,-2.3721,-2.3701,-2.3642,-2.3626,-2.3546,-2.3622,-2.3629,-2.372,-2.3521,-2.382,-2.3833,-2.3846,-2.4052,-2.4084,-2.4112,0,0,0,0,0,-2.3842,-2.3966,-2.3904,-2.3906,-2.3888,-2.3918,-2.3915,-2.3818,-2.373,-2.3785,-2.3728,-2.3628,-2.3708,-2.3632,-2.3638,-2.3731,-2.3814,-2.383,-2.3845,-2.4038,-2.4078,-2.4111,0,0,0,0,0,0,-2.4055,-2.3955,-2.3885,-2.3989,-2.3963,-2.3884,-2.395,-2.3863,-2.3864,-2.3846,-2.3727,-2.3715,-2.3809,-2.3776,-2.3694,-2.3872,-2.3744,-2.3762,-2.389,-2.3926,-2.3956,-2.3963,-2.3524,0,0,0,0,0,-2.4114,-2.4144,-2.4056,-2.4156,-2.4147,-2.4052,-2.4061,-2.3988,-2.3958,-2.3947,-2.3895,-2.3872,-2.3891,-2.3906,-2.3919,-2.4045,-2.403,-2.4112,-2.4142,-2.4167,-2.4185,-2.425,-2.4286,-2.3903,-2.3903,-2.3903,0,0,-2.4236,-2.4185,-2.4212,-2.4198,-2.4169,-2.4206,-2.4044,-2.4089,-2.4116,-2.3954,-2.4023,-2.3985,-2.395,-2.4052,-2.4095,-2.4029,-2.4286,-2.4187,-2.4208,-2.4211,-2.427,-2.4306,-2.4338,-2.3914,-2.3912,-2.391,0,0,-2.4478,-2.4442,-2.4522,-2.4496,-2.4454,-2.439,-2.4409,-2.4342,-2.431,-2.4376,-2.4256,-2.4286,-2.4322,-2.4302,-2.4297,-2.4531,-2.444,-2.4538,-2.4697,-2.4762,-2.4792,-2.4819,-2.4904,-2.4935,-2.4555,-2.4556,-2.4556,0,-2.4637,-2.4685,-2.4575,-2.4628,-2.4625,-2.4478,-2.4559,-2.454,-2.4506,-2.4509,-2.4434,-2.4476,-2.4442,-2.4538,-2.4595,-2.4595,-2.4615,-2.4546,-2.4796,-2.4822,-2.4844,-2.4924,-2.4957,-2.4568,-2.4567,-2.4566,-2.4565,0,-2.4882,-2.4918,-2.4987,-2.4956,-2.4961,-2.5028,-2.493,-2.4949,-2.4875,-2.4819,-2.489,-2.4843,-2.4845,-2.4861,-2.4791,-2.4948,-2.4908,-2.4817,-2.4687,-2.4895,-2.4968,-2.4998,-2.4586,-2.4582,-2.4578,-2.4575,0,0,-2.5259,-2.5164,-2.5192,-2.5175,-2.5118,-2.5144,-2.5205,-2.5203,-2.5223,-2.5204,-2.5253,-2.5286,-2.5201,-2.5195,-2.5121,-2.5178,-2.5368,-2.5079,-2.5076,-2.5136,-2.554,-2.5611,-2.5648,-2.5306,-2.5311,-2.5315,-2.5544,0,-2.5489,-2.5585,-2.5487,-2.5604,-2.5636,-2.5495,-2.5548,-2.552,-2.5469,-2.549,-2.5434,-2.546,-2.5344,-2.534,-2.539,-2.5334,-2.5448,-2.5316,-2.5353,-2.5356,-2.5369,-2.5686,-2.5761,-2.5978,-2.5571,-2.5576,-2.5579,0,-2.5769,-2.5761,-2.5882,-2.5815,-2.5825,-2.5874,-2.5865,-2.5886,-2.5852,-2.581,-2.5804,-2.5713,-2.577,-2.5641,-2.5719,-2.5632,-2.564,-2.5616,-2.5621,-2.5623,-2.5482,-2.5699,-2.6045,-2.6079,-2.5623,-2.562,-2.5616,0,-2.6035,-2.6054,-2.6127,-2.6118,-2.6042,-2.6081,-2.6051,-2.6009,-2.6015,-2.6008,-2.6011,-2.6011,-2.6012,-2.6016,-2.5928,-2.5842,-2.6018,-2.5881,-2.5987,-2.599,-2.6033,-2.6032,-2.6389,-2.6036,-2.6035,-2.6035,-2.6034,0,-2.6302,-2.6382,-2.6245,-2.6292,-2.6377,-2.6264,-2.6352,-2.6308,-2.6272,-2.6309,-2.6187,-2.6225,-2.6105,-2.6131,-2.6062,-2.6138,-2.6139,-2.6109,-2.6091,-2.6122,-2.6126,-2.6128,-2.6112,-2.6043,-2.6041,-2.6039,-2.6038,0,-2.6614,-2.6525,-2.6597,-2.6519,-2.6501,-2.6568,-2.6502,-2.6542,-2.6482,-2.653,-2.6535,-2.6442,-2.6465,-2.6377,-2.6386,-2.634,-2.6453,-2.6408,-2.6465,-2.6452,-2.6564,-2.6556,-2.6936,-2.6982,-2.6598,-2.6602,-2.6605,0,-2.6792,-2.6849,-2.6777,-2.6791,-2.6767,-2.6793,-2.6797,-2.6688,-2.6698,-2.6662,-2.6708,-2.672,-2.6725,-2.677,-2.6704,-2.6711,-2.6667,-2.68,-2.6667,-2.6697,-2.6672,-2.667,-2.6676,-2.6829,-2.6833,-2.6837,-2.684,0,-2.7118,-2.707,-2.708,-2.7075,-2.7083,-2.7074,-2.7057,-2.7077,-2.6959,-2.6977,-2.6998,-2.7002,-2.701,-2.7025,-2.7018,-2.699,-2.6898,-2.6882,-2.6907,-2.6941,-2.6972,-2.6959,-2.6542,-2.6874,-2.6871,-2.6868,-2.6867,-2.6865,-2.7369,-2.7413,-2.7369,-2.7384,-2.7359,-2.7346,-2.738,-2.7323,-2.7338,-2.7335,-2.727,-2.7305,-2.7268,-2.7248,-2.7229,-2.7256,-2.7195,-2.7231,-2.724,-2.7252,-2.7272,-2.6966,-2.7255,-2.7253,-2.7252,-2.7251,-2.7251,0,-2.769,-2.7653,-2.7668,-2.7647,-2.766,-2.7567,-2.7543,-2.7561,-2.7592,-2.7565,-2.7571,-2.7597,-2.761,-2.7546,-2.7551,-2.7585,-2.7543,-2.7591,-2.7589,-2.7584,-2.7326,-2.7304,-2.7625,-2.7625,-2.7625,-2.7625,-2.7625,-2.7625,-2.7858,-2.7929,-2.7877,-2.7935,-2.7898,-2.7929,-2.7924,-2.7912,-2.7889,-2.7922,-2.7932,-2.7889,-2.7847,-2.7848,-2.7858,-2.7838,-2.7847,-2.791,-2.7877,-2.7638,-2.7602,-2.7567,-2.7547,-2.7913,-2.7913,-2.8133,-2.8135,-2.8137]},{"header":{"parameterUnit":"m.s-1","parameterCategory":1,"la1":30.2991,"la2":30.254,"lo1":-89.0895,"lo2":-89.0444,"dy":0.0017,"dx":0.0017,"nx":28,"ny":28,"refTime":"2023-09-30T09:00:00:Z","depth":0,"parameterNumber":3,"parameterNumberName":"V-component_of_WINDS"},"data":[0,0,0,0,0,0,0,0,0,0,0,0,0,0,0,0,0,0,0,0,0,0,0,0,0,0,0,0,0,0,0,0,0,0,0,0,0,0,0,0,0,0,0,0,0,0,0,0,0,0,0,0,0,0,0,0,0,0,-1.178,-1.1781,0,-1.1864,-1.1865,-1.1866,-1.1932,-1.1932,-1.1933,-1.1934,-1.2016,-1.2017,-1.2019,0,0,0,0,0,0,0,0,0,0,0,0,0,-1.1672,-1.1674,-1.178,-1.1781,-1.1782,-1.1864,-1.1865,-1.1866,-1.1932,-1.1932,-1.1933,-1.1934,-1.2015,-1.2017,-1.2019,0,0,0,0,0,0,0,0,0,0,0,0,0,-1.1734,-1.1674,-1.178,-1.1825,-1.183,-1.1863,-1.1865,-1.1866,-1.1931,-1.1932,-1.1933,-1.1934,-1.2015,-1.2017,-1.2019,-1.2014,0,0,-1.2026,-1.2027,0,0,0,0,0,0,0,0,-1.173,-1.1738,-1.1817,-1.1822,-1.1827,-1.1888,-1.1857,-1.1916,-1.1931,-1.1893,-1.1934,-1.1935,-1.1972,-1.1978,-1.1992,-1.2018,-1.2021,-1.2027,-1.2028,-1.2029,-1.203,0,0,0,0,0,0,0,-1.1726,-1.1734,-1.1813,-1.1818,-1.1824,-1.1839,-1.1849,-1.1868,-1.1926,-1.1896,-1.1901,-1.191,-1.1975,-1.1989,-1.1994,-1.2023,-1.2027,-1.2029,-1.203,-1.2031,-1.2047,-1.2046,0,0,0,0,0,0,-1.1715,-1.173,-1.181,-1.1815,-1.178,-1.184,-1.1851,-1.1868,-1.1926,-1.1936,-1.1909,-1.1913,-1.1985,-1.1991,-1.1997,-1.1994,-1.2029,-1.2031,-1.2033,-1.2048,-1.2046,-1.2045,0,0,0,0,0,0,-1.1713,-1.1722,-1.1807,-1.1774,-1.1786,-1.1841,-1.1859,-1.1869,-1.1883,-1.1936,-1.1946,-1.1913,-1.1986,-1.1994,-1.2009,-1.1997,-1.2032,-1.2034,-1.2049,-1.2047,-1.2046,-1.1987,0,0,0,0,0,0,-1.1709,-1.172,-1.172,-1.1774,-1.1788,-1.1819,-1.1858,-1.187,-1.1887,-1.1893,-1.1942,-1.1951,-1.1987,-1.2005,-1.2011,-1.2001,-1.2036,-1.205,-1.2048,-1.2046,-1.199,-1.1984,-1.1978,0,0,0,0,0,-1.1705,-1.17,-1.172,-1.1729,-1.1789,-1.1818,-1.1826,-1.1868,-1.1886,-1.1885,-1.1919,-1.195,-1.1998,-1.2006,-1.2014,-1.2004,-1.2051,-1.2049,-1.2046,-1.1993,-1.1985,-1.1978,0,0,0,0,0,0,-1.1642,-1.1708,-1.1731,-1.1743,-1.1774,-1.1829,-1.183,-1.1858,-1.1885,-1.1889,-1.1939,-1.1949,-1.1959,-1.1983,-1.1992,-1.2001,-1.2028,-1.2027,-1.1985,-1.1978,-1.1972,-1.1965,-1.2038,0,0,0,0,0,-1.163,-1.1649,-1.1705,-1.171,-1.1725,-1.1774,-1.1788,-1.1818,-1.1853,-1.1866,-1.1901,-1.1932,-1.1954,-1.1967,-1.1991,-1.1994,-1.2005,-1.1991,-1.1985,-1.198,-1.1978,-1.198,-1.1974,-1.2038,-1.2038,-1.2038,0,0,-1.1604,-1.1642,-1.1651,-1.1698,-1.1726,-1.1744,-1.1785,-1.1802,-1.1815,-1.1868,-1.1885,-1.1911,-1.1949,-1.1958,-1.1964,-1.1979,-1.1963,-1.1977,-1.1972,-1.1974,-1.1977,-1.1971,-1.1965,-1.2036,-1.2037,-1.2037,0,0,-1.1566,-1.1598,-1.1605,-1.1632,-1.1674,-1.1707,-1.1708,-1.1759,-1.1779,-1.1796,-1.1836,-1.1852,-1.1889,-1.1914,-1.1931,-1.1901,-1.193,-1.1907,-1.1875,-1.1876,-1.1871,-1.1867,-1.1854,-1.185,-1.1906,-1.1905,-1.1905,0,-1.1529,-1.1558,-1.1604,-1.1619,-1.1638,-1.1688,-1.1694,-1.1718,-1.1765,-1.1776,-1.1792,-1.1839,-1.1868,-1.1883,-1.1875,-1.1888,-1.189,-1.1901,-1.1868,-1.1865,-1.1861,-1.185,-1.1845,-1.1902,-1.1903,-1.1903,-1.1903,0,-1.1509,-1.1528,-1.1529,-1.1573,-1.1592,-1.1602,-1.1649,-1.1662,-1.169,-1.172,-1.1736,-1.1773,-1.1804,-1.181,-1.1837,-1.1827,-1.1835,-1.1859,-1.1887,-1.1851,-1.1841,-1.1838,-1.1898,-1.1899,-1.19,-1.1901,0,0,-1.1434,-1.1504,-1.1503,-1.1523,-1.1573,-1.1588,-1.1599,-1.1631,-1.164,-1.167,-1.168,-1.171,-1.1732,-1.1752,-1.1782,-1.1784,-1.1755,-1.1808,-1.1809,-1.1795,-1.1745,-1.1726,-1.172,-1.1775,-1.1774,-1.1774,-1.1741,0,-1.1402,-1.1428,-1.1469,-1.148,-1.1497,-1.1544,-1.1554,-1.1585,-1.1613,-1.1631,-1.1662,-1.1682,-1.171,-1.1722,-1.1726,-1.1758,-1.1746,-1.1761,-1.1783,-1.1783,-1.1771,-1.1715,-1.1695,-1.1663,-1.1738,-1.1737,-1.1737,0,-1.137,-1.1398,-1.141,-1.1457,-1.1466,-1.1475,-1.1506,-1.1523,-1.1557,-1.1578,-1.1599,-1.1632,-1.1645,-1.1671,-1.1689,-1.1698,-1.171,-1.1726,-1.1726,-1.1729,-1.1757,-1.1715,-1.1654,-1.1648,-1.1732,-1.1732,-1.1733,0,-1.1311,-1.1352,-1.1365,-1.1381,-1.1437,-1.1441,-1.1464,-1.15,-1.1516,-1.1542,-1.1553,-1.158,-1.1594,-1.1614,-1.1653,-1.1669,-1.1665,-1.1695,-1.1681,-1.168,-1.1677,-1.1677,-1.1616,-1.1687,-1.1687,-1.1687,-1.1687,0,-1.1272,-1.1277,-1.134,-1.1347,-1.1354,-1.1401,-1.1406,-1.1433,-1.1465,-1.1477,-1.1519,-1.153,-1.1581,-1.1597,-1.1627,-1.1636,-1.1643,-1.1658,-1.1666,-1.1654,-1.1651,-1.1661,-1.1663,-1.1686,-1.1686,-1.1686,-1.1686,0,-1.1208,-1.125,-1.1266,-1.1318,-1.1331,-1.1333,-1.1376,-1.1384,-1.1415,-1.143,-1.1436,-1.1484,-1.1504,-1.1546,-1.1577,-1.1598,-1.1599,-1.1614,-1.1587,-1.1592,-1.1575,-1.1575,-1.1516,-1.151,-1.1586,-1.1585,-1.1585,0,-1.1179,-1.1184,-1.1236,-1.1248,-1.1269,-1.1288,-1.1304,-1.135,-1.1364,-1.1404,-1.1406,-1.1431,-1.1453,-1.1483,-1.1519,-1.1544,-1.1558,-1.1536,-1.1562,-1.1549,-1.1556,-1.1555,-1.1555,-1.153,-1.1529,-1.1528,-1.1527,0,-1.1123,-1.1143,-1.1165,-1.1194,-1.1212,-1.1237,-1.1264,-1.127,-1.1322,-1.1336,-1.1358,-1.1375,-1.1408,-1.143,-1.146,-1.1482,-1.1512,-1.1519,-1.1516,-1.1503,-1.1487,-1.1494,-1.157,-1.152,-1.152,-1.1521,-1.1521,-1.1522,-1.1075,-1.1081,-1.1118,-1.114,-1.1166,-1.1189,-1.1199,-1.1231,-1.1251,-1.1281,-1.1307,-1.1326,-1.1359,-1.1402,-1.1422,-1.1437,-1.1452,-1.1449,-1.1448,-1.1446,-1.144,-1.1486,-1.1443,-1.1443,-1.1443,-1.1443,-1.1444,0,-1.1019,-1.1045,-1.1066,-1.1102,-1.1119,-1.1148,-1.1178,-1.119,-1.1207,-1.1236,-1.1256,-1.1281,-1.1303,-1.1341,-1.1365,-1.137,-1.1384,-1.1374,-1.1374,-1.1378,-1.1426,-1.1425,-1.1362,-1.1362,-1.1362,-1.1362,-1.1362,-1.1362,-1.0993,-1.1004,-1.1028,-1.1052,-1.1078,-1.1098,-1.1113,-1.1134,-1.1157,-1.1183,-1.1201,-1.1227,-1.1258,-1.1286,-1.1306,-1.1317,-1.1323,-1.1309,-1.1323,-1.1367,-1.1375,-1.1382,-1.1381,-1.131,-1.131,-1.1274,-1.1274,-1.1273]}]]